{"data":{"norad_id":57668,"epoch":"2026-09-20T13:36:03.478752Z","epoch_age_seconds":125626,"freshness":"FRESH","line1":"1 57668U 23124F   26263.56670693  .00000469  00000+0  25016-4 0  9991","line2":"2 57668  53.1624  19.3849 0001272  81.3946 278.7201 15.34389615173432","mean_motion":15.34389615,"eccentricity":0.0001272,"inclination_deg":53.1624,"raan_deg":19.3849,"arg_perigee_deg":81.3946,"mean_anomaly_deg":278.7201,"bstar":2.5016e-5,"rev_number":17343,"period_min":93.848393258319,"perigee_km":461.86394798495,"apogee_km":463.60426559452,"semimajor_km":6840.8711067897,"source":"CELESTRAK","updated_at":"2026-09-21T09:00:33.670643Z"}}